SL-12 DEB, 19753

Orbit data source: Space-Track

SL-12 DEB, 19753 is space debris in MEO originally from a launch on Tue, 10 Jan 1989 UTC launched from the Tyuratam Missile And Space Complex (TTMTR). Debris objects in space refer to the collection of defunct objects orbiting the Earth. Examples of debris include non-operational satellites, rocket bodies, and fragments generated from explosions, collisions, or faulty payload assembly.

Loading next visibility...
Identifier
19753, 1989-001E
Orbit
MEO
Country
Flag of CISCIS
Related business
Manufacturer
NPO PM
Mission
Spacecraft
Bus & Motor
ETALON ADAPTER, Unknown motor
Mass
Unknown
Launch date (UTC)
1989-01-10 (37 years ago)
Launch vehicle
Unknown
Launch site
Tyuratam Missile And Space Complex (TTMTR)
Object type
Payload
Rocket body
Debris
Shape & HBR
Unknown shape, 1.1 m
Radar Cross Section
Medium (>0.1 m² and <1 m²)

Expand to show TLE details & history
Last TLE update: 2 days ago

TLE from 2 days ago
0 SL-12 DEB
1 19753U 89001E   26171.31786512 -.00000041  00000-0  00000+0 0  9998
2 19753  64.9476  72.0596 0024044 217.5964 258.1354  2.13160716291759
Epoch: 2026-06-20T07:37Z
TLE epoch observation values (Epoch: 2026-06-20T07:37:43.546Z)
Latitude
54.93063°
Longitude
-172.51618°
Altitude
19,146.135 km
Speed
3.952 km/s
True Right ascension
14h 01m 47s
True Declination
54° 53' 08"
Sunlit
Object was in daylight at epoch
Visualization orbit readout
Latitude
Unknown
Longitude
Unknown
Altitude
Unknown
Speed
Unknown
Apparent Right ascension
Unknown
Apparent Declination
Unknown
Sunlit
N/A
Visualization observer readout
Local Sidereal Time
03:48:13
Azimuth
Unknown
Elevation
Unknown
Doppler factor
Unknown
Orbital elements
Apogee altitude
19,186.139 km
Perigee altitude
19,063.5 km
Semi-major axis
25,502.957 km
Eccentricity
0.0024
Inclination
64.9476°
RAAN
72.0596°
Arg. of periapsis
217.5964°
True anomaly
257.86593°
Mean anomaly
258.1354°
Eccentric anomaly
258.00065°
Mean motion
0.53291 °/min
Orbital period
675.53 mins
BSTAR
0
Loading maneuver chart data...
Computing Atmospheric mass density...
Loading historical data...
Loading historical data...
Loading historical data...
Loading historical data...
Loading historical data...
Loading historical data...
Loading historical data...

Documentation

Showing up to 5 results
|